QPF
0.00 0.00 0.00 0.00 0.00 0.00 0.00 0.00 0.00 0.00 0.00 0.00 0.00 0.00 0.00 0.00 0.00 0.00 0.00 0.01 0.04 0.07 0.04 0.00 0.00 0.01 0.02 0.01 0.00 0.00 0.00 0.00 0.00 0.00 0.00 0.01 0.01 0.01 0.02 0.02 0.01 0.00 0.00 0.00 0.00
0.00 0.00 0.00 0.00 0.00 0.00 0.00 0.00 0.00 0.00 0.00 0.00 0.00 0.00 0.00 0.00 0.00 0.00 0.00 0.00 0.00 0.00 0.00 0.00 0.00 0.09 0.08 0.02 0.00 0.00 0.00 0.00 0.00 0.00 0.00 0.01 0.02 0.00 0.00 0.10 0.10 0.02 0.02 0.00 0.00
0.00 0.00 0.00 0.00 0.00 0.00 0.00 0.00 0.00 0.00 0.00 0.00 0.00 0.00 0.00 0.00 0.00 0.00 0.00 0.00 0.00 0.00 0.00 0.00 0.00 0.08 0.08 0.09 0.01 0.00 0.00 0.00 0.00 0.00 0.00 0.00 0.00 0.01 0.02 0.13 0.14 0.15 0.03 0.00 0.01
0.00 0.00 0.00 0.00 0.00 0.00 0.00 0.00 0.00 0.00 0.00 0.00 0.00 0.00 0.00 0.00 0.00 0.00 0.00 0.00 0.00 0.00 0.00 0.00 0.00 0.06 0.08 0.08 0.01 0.00 0.00 0.00 0.00 0.00 0.00 0.00 0.00 0.01 0.03 0.05 0.11 0.13 0.10 0.01 0.04
0.00 0.00 0.00 0.00 0.00 0.00 0.00 0.00 0.00 0.00 0.00 0.00 0.00 0.00 0.00 0.00 0.00 0.00 0.00 0.00 0.00 0.00 0.00 0.00 0.00 0.03 0.08 0.06 0.02 0.01 0.00 0.00 0.00 0.00 0.00 0.00 0.00 0.00 0.00 0.06 0.02 0.11 0.18 0.04 0.02
0.00 0.00 0.00 0.00 0.00 0.00 0.00 0.00 0.00 0.00 0.00 0.00 0.00 0.00 0.00 0.00 0.00 0.00 0.00 0.00 0.00 0.00 0.00 0.01 0.00 0.00 0.02 0.03 0.03 0.01 0.00 0.00 0.00 0.00 0.00 0.00 0.00 0.00 0.01 0.02 0.04 0.16 0.17 0.10 0.03
0.00 0.00 0.00 0.00 0.00 0.00 0.00 0.00 0.00 0.00 0.00 0.00 0.00 0.00 0.00 0.00 0.00 0.00 0.00 0.00 0.00 0.00 0.00 0.00 0.00 0.01 0.01 0.01 0.00 0.00 0.00 0.00 0.00 0.00 0.00 0.00 0.00 0.00 0.00 0.00 0.11 0.10 0.14 0.11 0.03
0.00 0.00 0.00 0.00 0.00 0.00 0.00 0.00 0.00 0.00 0.00 0.00 0.00 0.00 0.00 0.00 0.00 0.00 0.00 0.00 0.00 0.00 0.00 0.00 0.00 0.02 0.04 0.02 0.00 0.00 0.00 0.00 0.00 0.00 0.00 0.00 0.00 0.00 0.00 0.00 0.09 0.09 0.05 0.18 0.09
0.00 0.00 0.00 0.00 0.00 0.00 0.00 0.00 0.00 0.00 0.00 0.00 0.00 0.00 0.00 0.00 0.00 0.00 0.00 0.00 0.00 0.00 0.00 0.00 0.00 0.01 0.02 0.01 0.00 0.00 0.00 0.01 0.00 0.00 0.00 0.00 0.00 0.00 0.00 0.00 0.06 0.17 0.10 0.05 0.11
0.00 0.00 0.00 0.00 0.00 0.00 0.00 0.00 0.00 0.00 0.00 0.00 0.00 0.00 0.00 0.00 0.00 0.00 0.00 0.00 0.00 0.00 0.00 0.00 0.00 0.00 0.02 0.00 0.00 0.00 0.01 0.00 0.01 0.00 0.00 0.00 0.00 0.00 0.00 0.00 0.02 0.10 0.17 0.12 0.03
0.00 0.00 0.00 0.00 0.00 0.00 0.00 0.00 0.00 0.00 0.00 0.00 0.00 0.00 0.00 0.00 0.00 0.00 0.00 0.00 0.00 0.00 0.00 0.00 0.00 0.00 0.00 0.00 0.00 0.00 0.00 0.01 0.00 0.00 0.00 0.00 0.00 0.00 0.00 0.00 0.00 0.03 0.06 0.09 0.04
0.00 0.00 0.00 0.00 0.00 0.00 0.00 0.00 0.00 0.00 0.00 0.00 0.00 0.00 0.00 0.00 0.00 0.00 0.00 0.00 0.00 0.00 0.00 0.00 0.00 0.00 0.00 0.00 0.00 0.00 0.00 0.00 0.00 0.00 0.00 0.00 0.00 0.00 0.00 0.00 0.00 0.01 0.02 0.02 0.03
0.00 0.00 0.00 0.00 0.00 0.00 0.00 0.00 0.00 0.00 0.00 0.00 0.00 0.00 0.00 0.00 0.00 0.00 0.00 0.00 0.00 0.00 0.00 0.00 0.00 0.00 0.00 0.00 0.00 0.00 0.00 0.00 0.01 0.00 0.00 0.00 0.00 0.00 0.00 0.00 0.00 0.00 0.02 0.01 0.01
0.00 0.00 0.00 0.00 0.00 0.00 0.00 0.00 0.00 0.00 0.00 0.00 0.00 0.00 0.00 0.00 0.00 0.00 0.00 0.00 0.00 0.00 0.00 0.00 0.00 0.00 0.00 0.00 0.00 0.00 0.00 0.00 0.00 0.00 0.00 0.00 0.00 0.00 0.00 0.00 0.00 0.00 0.00 0.02 0.00
0.00 0.00 0.00 0.00 0.00 0.00 0.00 0.00 0.00 0.00 0.00 0.00 0.00 0.00 0.00 0.00 0.00 0.00 0.00 0.00 0.00 0.00 0.00 0.00 0.00 0.00 0.00 0.00 0.00 0.00 0.00 0.00 0.00 0.00 0.00 0.00 0.00 0.00 0.00 0.00 0.00 0.00 0.00 0.00 0.00
0.00 0.00 0.00 0.00 0.00 0.00 0.00 0.00 0.00 0.00 0.00 0.00 0.00 0.00 0.00 0.00 0.00 0.00 0.00 0.00 0.00 0.00 0.00 0.00 0.00 0.00 0.00 0.00 0.00 0.00 0.00 0.00 0.00 0.00 0.00 0.00 0.00 0.00 0.00 0.00 0.00 0.00 0.00 0.00 0.00
0.00 0.00 0.00 0.00 0.00 0.00 0.00 0.00 0.00 0.00 0.00 0.00 0.00 0.00 0.00 0.00 0.00 0.00 0.00 0.00 0.00 0.00 0.00 0.00 0.00 0.00 0.00 0.00 0.00 0.00 0.00 0.01 0.00 0.02 0.00 0.00 0.00 0.00 0.00 0.00 0.00 0.00 0.00 0.00 0.00
0.00 0.00 0.00 0.00 0.00 0.00 0.00 0.00 0.00 0.00 0.00 0.00 0.00 0.00 0.00 0.00 0.00 0.00 0.00 0.00 0.00 0.00 0.00 0.00 0.00 0.00 0.00 0.00 0.00 0.00 0.00 0.02 0.02 0.01 0.00 0.00 0.00 0.00 0.00 0.00 0.00 0.00 0.00 0.00 0.00
0.00 0.00 0.00 0.00 0.00 0.00 0.00 0.00 0.00 0.00 0.00 0.00 0.00 0.00 0.00 0.00 0.00 0.00 0.00 0.00 0.00 0.00 0.00 0.00 0.00 0.00 0.00 0.00 0.00 0.00 0.00 0.00 0.00 0.00 0.00 0.00 0.00 0.00 0.00 0.00 0.00 0.00 0.00 0.00 0.00
0.00 0.00 0.00 0.00 0.00 0.00 0.00 0.00 0.00 0.00 0.00 0.00 0.00 0.00 0.00 0.00 0.00 0.00 0.00 0.00 0.00 0.00 0.00 0.00 0.00 0.00 0.00 0.00 0.00 0.00 0.00 0.00 0.00 0.00 0.00 0.00 0.00 0.00 0.00 0.00 0.00 0.00 0.00 0.00 0.02
0.00 0.00 0.00 0.00 0.00 0.00 0.00 0.00 0.00 0.00 0.00 0.00 0.00 0.00 0.00 0.00 0.00 0.00 0.00 0.00 0.00 0.00 0.00 0.00 0.00 0.00 0.00 0.00 0.00 0.00 0.00 0.00 0.00 0.00 0.00 0.00 0.00 0.00 0.00 0.00 0.00 0.00 0.00 0.00 0.00
0.00 0.00 0.00 0.00 0.00 0.00 0.00 0.00 0.00 0.00 0.00 0.00 0.00 0.00 0.00 0.00 0.00 0.00 0.00 0.00 0.00 0.00 0.00 0.00 0.00 0.00 0.00 0.00 0.00 0.00 0.00 0.00 0.00 0.00 0.00 0.00 0.00 0.00 0.00 0.00 0.00 0.00 0.00 0.00 0.00
0.01 0.00 0.00 0.00 0.00 0.00 0.00 0.00 0.00 0.00 0.00 0.00 0.00 0.00 0.00 0.00 0.00 0.00 0.00 0.00 0.00 0.00 0.00 0.00 0.00 0.00 0.00 0.00 0.00 0.00 0.00 0.00 0.00 0.00 0.00 0.00 0.00 0.00 0.00 0.00 0.00 0.00 0.00 0.00 0.00
0.01 0.00 0.00 0.00 0.00 0.00 0.00 0.00 0.00 0.00 0.00 0.00 0.00 0.00 0.00 0.00 0.00 0.00 0.00 0.00 0.00 0.00 0.00 0.00 0.00 0.00 0.00 0.00 0.00 0.00 0.00 0.00 0.00 0.00 0.00 0.00 0.00 0.00 0.00 0.00 0.00 0.00 0.00 0.00 0.00
0.01 0.00 0.00 0.00 0.00 0.00 0.00 0.00 0.00 0.00 0.00 0.00 0.00 0.00 0.00 0.00 0.00 0.00 0.00 0.00 0.00 0.00 0.00 0.00 0.00 0.00 0.00 0.00 0.00 0.00 0.00 0.00 0.00 0.00 0.00 0.00 0.00 0.00 0.00 0.00 0.00 0.00 0.00 0.00 0.00
0.01 0.01 0.00 0.00 0.00 0.00 0.00 0.00 0.00 0.00 0.00 0.00 0.00 0.00 0.00 0.00 0.00 0.00 0.00 0.00 0.00 0.00 0.00 0.00 0.00 0.00 0.00 0.00 0.00 0.00 0.00 0.00 0.00 0.00 0.00 0.00 0.00 0.00 0.00 0.00 0.00 0.00 0.00 0.00 0.00
0.01 0.01 0.01 0.00 0.00 0.00 0.00 0.00 0.00 0.00 0.00 0.00 0.00 0.00 0.00 0.00 0.00 0.00 0.00 0.00 0.00 0.00 0.00 0.00 0.00 0.00 0.00 0.00 0.00 0.00 0.00 0.00 0.00 0.00 0.00 0.00 0.00 0.00 0.00 0.00 0.00 0.00 0.00 0.00 0.00
MSLP
1020.88 1020.59 1020.29 1020.17 1019.97 1019.72 1019.53 1019.19 1018.82 1018.56 1018.25 1018.00 1017.76 1017.55 1017.24 1016.87 1016.18 1015.95 1016.08 1016.66 1016.12 1015.57 1015.16 1014.40 1013.74 1013.72 1013.62 1013.50 1012.66 1012.40 1012.49 1011.17 1009.73 1008.50 1007.44 1006.12 1006.05 1005.69 1005.76 1005.50 1005.87 1006.36 1007.30 1008.23 1010.26
1020.86 1020.59 1020.37 1020.22 1019.96 1019.72 1019.51 1019.22 1018.87 1018.56 1018.32 1018.03 1017.72 1017.50 1017.22 1016.98 1016.48 1015.79 1016.58 1016.26 1016.04 1015.69 1015.07 1014.05 1013.72 1013.82 1013.88 1013.40 1012.99 1012.68 1012.43 1011.18 1009.78 1008.72 1008.50 1007.52 1007.42 1005.89 1006.43 1006.30 1006.62 1007.67 1008.36 1009.32 1009.81
1020.88 1020.66 1020.47 1020.22 1019.98 1019.74 1019.47 1019.15 1018.84 1018.55 1018.26 1018.05 1017.75 1017.41 1017.15 1017.02 1016.24 1015.86 1016.16 1016.00 1015.81 1015.81 1015.27 1014.61 1014.05 1014.16 1014.00 1013.69 1013.02 1012.83 1012.21 1011.00 1010.01 1009.50 1009.03 1008.31 1007.47 1008.18 1007.17 1007.87 1009.97 1009.71 1009.61 1009.92 1010.04
1020.95 1020.73 1020.46 1020.19 1019.94 1019.66 1019.38 1019.09 1018.80 1018.54 1018.25 1018.02 1017.71 1017.26 1017.01 1016.90 1016.35 1016.04 1016.01 1015.67 1015.62 1015.57 1015.31 1014.41 1014.28 1014.34 1014.15 1013.70 1013.03 1012.54 1011.86 1011.27 1010.38 1009.93 1009.75 1009.16 1008.60 1008.11 1007.70 1007.88 1009.09 1010.04 1009.42 1010.15 1010.33
1020.95 1020.67 1020.43 1020.15 1019.85 1019.50 1019.24 1018.91 1018.66 1018.42 1018.20 1017.95 1017.61 1017.22 1016.94 1016.23 1015.87 1015.84 1015.95 1015.53 1015.02 1015.19 1014.98 1014.55 1014.14 1013.94 1014.01 1013.73 1013.28 1012.75 1012.05 1011.20 1010.56 1010.31 1009.95 1009.63 1009.09 1008.55 1008.26 1007.71 1007.99 1009.40 1009.91 1010.29 1010.34
1020.93 1020.63 1020.36 1020.07 1019.80 1019.45 1019.13 1018.76 1018.47 1018.20 1017.96 1017.75 1017.51 1017.26 1016.78 1016.08 1016.02 1015.89 1015.73 1015.59 1015.24 1015.06 1014.67 1014.67 1014.35 1014.13 1013.90 1013.71 1013.59 1013.26 1012.69 1011.65 1010.95 1010.51 1010.07 1009.79 1009.35 1008.78 1007.44 1007.78 1008.40 1009.28 1010.12 1010.83 1011.25
1020.98 1020.67 1020.29 1019.96 1019.63 1019.26 1018.94 1018.54 1018.24 1018.02 1017.75 1017.52 1017.35 1017.22 1016.51 1016.25 1015.88 1015.92 1015.65 1015.40 1015.38 1015.15 1014.98 1014.73 1014.99 1014.59 1014.13 1013.65 1013.61 1013.40 1013.00 1012.09 1011.39 1010.85 1010.33 1009.92 1009.31 1008.83 1007.96 1007.59 1008.22 1009.33 1010.31 1010.86 1010.87
1021.06 1020.69 1020.30 1019.92 1019.52 1019.12 1018.75 1018.34 1017.95 1017.65 1017.54 1017.33 1017.24 1017.08 1016.14 1015.80 1015.77 1015.72 1015.59 1015.24 1015.15 1015.11 1015.00 1014.98 1014.92 1014.68 1014.32 1014.13 1013.64 1013.41 1012.97 1012.23 1010.86 1010.61 1010.43 1010.60 1009.64 1008.80 1008.27 1008.17 1008.64 1009.03 1009.87 1010.71 1011.01
1021.12 1020.70 1020.29 1019.82 1019.41 1018.97 1018.46 1018.02 1017.57 1017.33 1017.19 1017.19 1017.16 1016.61 1015.78 1015.91 1015.74 1015.73 1015.73 1015.45 1015.13 1014.97 1014.82 1014.75 1014.77 1014.49 1014.43 1014.47 1014.22 1013.48 1012.95 1012.09 1010.88 1009.79 1010.24 1010.29 1009.81 1009.19 1008.46 1008.43 1008.97 1009.62 1009.73 1010.00 1009.12
1021.02 1020.57 1020.14 1019.72 1019.32 1018.84 1018.14 1017.51 1017.00 1017.18 1016.99 1016.54 1016.50 1016.66 1015.65 1015.43 1015.36 1015.57 1015.61 1015.70 1015.30 1014.86 1014.83 1014.67 1014.47 1014.33 1014.51 1014.54 1014.16 1013.80 1013.08 1012.17 1011.22 1010.58 1010.15 1010.13 1009.90 1009.24 1008.78 1008.87 1009.11 1009.56 1010.26 1010.54 1010.83
1021.09 1020.57 1019.99 1019.51 1019.09 1018.60 1017.82 1016.98 1017.35 1017.34 1016.61 1015.77 1015.33 1014.97 1014.89 1015.29 1015.49 1015.28 1015.31 1015.31 1015.18 1014.97 1014.77 1014.74 1014.70 1014.27 1014.18 1014.36 1014.29 1014.00 1013.33 1012.53 1011.52 1010.95 1010.42 1010.33 1010.10 1009.36 1009.03 1009.15 1009.19 1009.51 1009.93 1010.61 1010.87
1021.19 1020.66 1020.06 1019.39 1018.83 1018.43 1018.18 1017.47 1017.96 1018.18 1016.75 1015.07 1014.82 1014.97 1015.00 1015.16 1015.18 1015.02 1015.39 1015.28 1015.00 1014.73 1014.78 1014.91 1014.61 1014.23 1014.30 1014.35 1014.35 1014.04 1013.54 1012.71 1011.86 1011.12 1011.07 1010.98 1010.28 1009.18 1008.93 1008.84 1009.14 1009.56 1010.17 1010.44 1010.68
1021.20 1020.59 1019.88 1019.31 1018.73 1018.25 1017.92 1018.14 1018.04 1017.84 1017.17 1014.87 1014.66 1014.67 1014.77 1015.28 1014.85 1014.71 1015.18 1014.81 1014.76 1014.75 1014.70 1014.62 1014.58 1014.59 1014.54 1014.38 1014.31 1013.99 1013.66 1013.23 1012.58 1011.92 1011.52 1011.50 1010.48 1009.31 1008.54 1008.35 1008.49 1009.03 1009.62 1010.50 1010.47
1021.12 1020.52 1019.84 1019.04 1019.03 1018.12 1017.82 1018.03 1018.01 1017.99 1017.30 1015.21 1014.63 1014.47 1014.85 1015.06 1014.96 1014.68 1014.95 1015.18 1014.73 1014.79 1014.80 1014.77 1014.26 1014.83 1014.62 1014.31 1014.06 1013.82 1013.57 1013.23 1013.27 1013.23 1012.90 1011.98 1010.88 1009.22 1008.26 1007.90 1007.81 1008.22 1009.02 1009.53 1010.19
1021.12 1020.50 1019.84 1019.60 1019.28 1018.26 1018.52 1018.14 1017.88 1017.85 1017.35 1014.73 1014.66 1014.62 1014.42 1014.75 1014.71 1015.02 1015.10 1015.30 1014.97 1014.62 1015.35 1014.81 1014.69 1014.54 1014.74 1014.28 1013.93 1013.99 1014.04 1014.09 1014.10 1014.07 1013.94 1013.01 1012.43 1008.61 1008.13 1007.49 1007.24 1007.32 1007.87 1008.52 1008.90
1021.08 1020.53 1020.04 1018.67 1018.79 1018.48 1018.37 1018.26 1018.15 1017.88 1016.28 1014.80 1014.63 1014.71 1014.79 1014.56 1014.27 1014.77 1015.13 1015.46 1015.08 1015.08 1014.85 1014.86 1015.09 1014.97 1014.38 1014.52 1014.39 1014.24 1014.44 1014.45 1014.46 1014.79 1014.52 1013.31 1012.64 1009.00 1007.62 1006.11 1005.84 1006.07 1006.64 1007.17 1007.89
1020.73 1020.08 1020.08 1019.11 1018.42 1018.36 1018.38 1018.37 1018.47 1016.89 1014.75 1014.21 1013.95 1014.18 1014.42 1014.09 1014.09 1014.22 1014.49 1014.80 1014.93 1015.13 1014.65 1014.47 1014.61 1014.79 1014.59 1014.45 1014.48 1014.87 1015.14 1015.23 1015.72 1015.37 1014.04 1012.82 1012.04 1008.82 1007.17 1006.13 1005.56 1005.36 1005.63 1006.16 1006.83
1020.46 1019.38 1018.81 1018.61 1018.43 1018.46 1018.40 1018.40 1017.77 1014.48 1013.37 1013.22 1013.34 1013.62 1013.78 1013.30 1013.55 1013.73 1014.00 1013.91 1013.70 1014.14 1014.45 1014.72 1014.09 1014.22 1014.29 1013.86 1014.14 1014.83 1015.07 1015.07 1015.27 1015.08 1013.92 1012.98 1010.94 1008.14 1006.30 1005.21 1004.87 1004.80 1004.60 1004.96 1005.66
1020.14 1018.83 1018.28 1017.84 1018.33 1018.51 1018.48 1017.75 1015.32 1013.41 1012.88 1013.03 1013.36 1013.28 1013.12 1013.00 1013.22 1013.27 1013.25 1013.05 1012.30 1012.70 1013.58 1013.55 1013.43 1013.61 1013.90 1014.01 1014.06 1014.24 1014.70 1014.60 1015.33 1014.43 1014.12 1012.20 1009.78 1007.37 1005.95 1005.23 1004.97 1004.76 1004.79 1004.96 1005.11
1020.42 1019.01 1017.75 1017.50 1018.04 1018.34 1018.00 1015.86 1014.12 1012.69 1012.59 1012.71 1012.92 1012.62 1012.34 1012.50 1013.32 1012.85 1012.02 1011.04 1011.55 1011.69 1011.99 1012.49 1013.16 1013.50 1014.01 1014.41 1014.32 1014.11 1014.77 1014.89 1015.17 1015.01 1013.64 1011.47 1009.63 1007.41 1005.95 1005.61 1005.23 1005.21 1005.10 1005.09 1005.28
1020.29 1019.01 1018.03 1017.82 1017.92 1018.01 1016.57 1014.72 1013.17 1012.22 1012.30 1012.30 1011.88 1011.95 1011.73 1011.77 1012.17 1012.21 1011.35 1010.65 1010.61 1011.66 1012.34 1012.69 1013.08 1013.90 1014.22 1013.92 1013.62 1014.35 1014.18 1014.42 1014.31 1014.12 1013.24 1011.83 1009.16 1006.85 1006.12 1005.78 1005.69 1005.32 1005.00 1005.21 1005.33
1019.99 1019.19 1017.97 1017.97 1018.25 1016.45 1014.91 1013.54 1012.63 1012.12 1012.31 1012.14 1011.90 1011.34 1011.12 1011.10 1011.21 1011.53 1010.92 1010.44 1010.44 1011.26 1012.43 1012.71 1012.95 1013.31 1012.87 1012.38 1012.50 1012.90 1012.87 1013.16 1013.89 1013.47 1012.74 1011.91 1009.06 1007.02 1006.27 1005.86 1005.72 1005.50 1005.37 1005.51 1005.75
1019.74 1018.24 1017.72 1017.87 1016.80 1015.54 1013.92 1012.84 1012.44 1012.02 1011.93 1011.80 1011.57 1011.03 1010.67 1010.81 1010.99 1010.49 1010.40 1010.38 1010.56 1011.20 1011.43 1012.38 1012.93 1012.82 1012.35 1012.77 1012.55 1012.39 1012.25 1012.20 1012.42 1012.77 1012.44 1011.96 1008.83 1006.82 1006.22 1006.02 1005.71 1005.66 1005.87 1005.93 1006.16
1019.98 1018.19 1017.15 1017.42 1016.14 1015.32 1014.11 1012.23 1011.64 1011.25 1011.18 1011.03 1010.60 1010.57 1010.73 1010.62 1010.30 1010.10 1010.15 1010.83 1011.08 1011.34 1011.70 1011.90 1012.37 1012.15 1011.52 1010.97 1011.26 1011.93 1011.36 1011.51 1011.85 1011.85 1011.07 1009.98 1008.50 1007.30 1006.70 1006.25 1005.93 1005.88 1005.77 1005.89 1006.20
1019.87 1017.78 1016.87 1016.03 1015.69 1015.07 1014.38 1012.56 1010.99 1010.66 1010.72 1010.44 1010.28 1009.78 1009.73 1010.13 1009.93 1009.82 1010.03 1010.74 1011.44 1011.80 1012.22 1012.32 1012.01 1011.86 1011.21 1010.66 1010.47 1010.44 1010.64 1010.61 1010.75 1010.02 1010.25 1007.12 1007.91 1006.62 1006.13 1005.78 1005.44 1005.43 1005.54 1005.92 1006.41
1020.85 1019.30 1017.60 1015.81 1014.92 1014.10 1013.18 1011.53 1011.30 1010.57 1010.15 1009.86 1009.57 1009.07 1009.07 1009.14 1008.92 1008.88 1009.30 1009.86 1010.34 1011.57 1012.31 1012.31 1012.05 1011.39 1010.90 1010.58 1010.20 1009.60 1009.11 1009.38 1009.04 1008.78 1008.43 1007.49 1006.62 1005.26 1005.57 1005.41 1005.24 1005.30 1005.40 1005.74 1006.25
1021.46 1020.84 1019.70 1016.11 1014.86 1013.93 1011.50 1010.72 1010.06 1010.08 1009.23 1008.70 1009.00 1009.16 1008.75 1008.32 1008.50 1008.68 1009.03 1009.58 1009.71 1010.28 1011.48 1011.76 1012.12 1011.73 1010.63 1009.87 1009.55 1008.82 1007.15 1007.07 1006.82 1006.68 1006.47 1006.62 1004.10 1005.37 1005.33 1005.41 1005.47 1005.56 1005.81 1006.09 1006.27
Thickness
5645 5647 5648 5647 5647 5646 5645 5645 5644 5643 5640 5638 5633 5627 5619 5609 5601 5594 5580 5569 5568 5568 5569 5574 5578 5577 5580 5580 5592 5598 5582 5599 5628 5646 5674 5710 5701 5721 5737 5738 5743 5746 5739 5743 5733
5644 5645 5646 5645 5645 5644 5643 5641 5641 5640 5637 5634 5629 5623 5615 5605 5597 5591 5577 5573 5568 5566 5569 5573 5572 5572 5567 5575 5580 5580 5576 5603 5640 5657 5649 5669 5673 5715 5715 5718 5715 5723 5734 5733 5736
5642 5643 5643 5643 5643 5642 5641 5640 5638 5636 5634 5629 5625 5620 5613 5603 5597 5588 5580 5575 5571 5565 5567 5570 5573 5568 5565 5570 5577 5577 5578 5608 5621 5629 5647 5661 5680 5686 5699 5685 5666 5689 5711 5719 5727
5640 5641 5641 5642 5641 5640 5639 5637 5635 5632 5630 5626 5622 5618 5612 5603 5589 5587 5582 5578 5572 5567 5565 5571 5569 5563 5562 5564 5578 5574 5589 5595 5604 5621 5633 5646 5669 5677 5678 5687 5694 5696 5709 5714 5716
5638 5639 5640 5640 5639 5639 5637 5637 5634 5631 5628 5625 5621 5616 5612 5608 5598 5589 5582 5579 5578 5571 5568 5568 5569 5569 5562 5567 5572 5574 5583 5597 5607 5619 5630 5643 5652 5665 5674 5688 5710 5694 5697 5702 5709
5636 5638 5638 5638 5637 5638 5637 5635 5632 5631 5628 5624 5619 5614 5609 5601 5598 5590 5584 5580 5577 5574 5573 5569 5568 5570 5569 5568 5567 5573 5578 5589 5602 5612 5624 5633 5643 5656 5681 5695 5697 5686 5680 5689 5692
5634 5635 5636 5636 5635 5635 5635 5634 5632 5630 5627 5623 5619 5613 5608 5600 5599 5590 5586 5581 5577 5573 5569 5571 5564 5563 5568 5569 5573 5571 5568 5580 5591 5604 5612 5626 5632 5647 5676 5693 5685 5678 5670 5665 5689
5632 5633 5634 5634 5634 5635 5634 5633 5632 5630 5626 5622 5617 5612 5607 5608 5600 5593 5587 5582 5579 5575 5571 5569 5566 5562 5563 5568 5570 5566 5569 5563 5591 5598 5609 5607 5609 5645 5669 5675 5673 5671 5670 5674 5676
5628 5630 5631 5632 5632 5632 5633 5633 5632 5630 5626 5621 5617 5614 5610 5608 5600 5594 5586 5580 5577 5575 5572 5570 5565 5561 5560 5554 5552 5565 5554 5567 5581 5604 5602 5600 5609 5634 5658 5662 5663 5660 5672 5674 5659
5627 5628 5629 5629 5629 5630 5632 5634 5634 5628 5625 5623 5619 5607 5611 5607 5603 5595 5588 5580 5575 5573 5568 5564 5561 5556 5552 5550 5548 5552 5561 5569 5576 5592 5597 5595 5602 5625 5645 5650 5654 5655 5657 5659 5655
5623 5625 5626 5627 5627 5628 5631 5635 5630 5625 5622 5622 5622 5620 5616 5609 5602 5596 5591 5582 5577 5571 5560 5561 5552 5548 5556 5553 5555 5558 5560 5564 5577 5586 5593 5589 5595 5617 5629 5634 5642 5644 5650 5649 5654
5617 5619 5622 5624 5626 5626 5625 5628 5617 5611 5613 5627 5625 5617 5614 5608 5597 5596 5590 5579 5575 5568 5565 5558 5548 5561 5560 5556 5553 5556 5556 5561 5575 5587 5584 5579 5588 5616 5621 5628 5634 5637 5638 5645 5650
5612 5615 5618 5620 5621 5623 5622 5615 5611 5609 5608 5624 5622 5615 5611 5604 5599 5596 5588 5585 5576 5569 5566 5558 5558 5558 5554 5552 5549 5552 5552 5554 5565 5578 5581 5574 5578 5598 5618 5628 5633 5636 5638 5637 5646
5606 5609 5612 5617 5616 5618 5616 5609 5605 5602 5595 5617 5613 5613 5607 5602 5594 5598 5590 5581 5578 5569 5566 5561 5567 5551 5550 5550 5555 5547 5560 5564 5561 5556 5540 5575 5544 5589 5612 5620 5628 5633 5632 5639 5642
5601 5604 5606 5606 5606 5611 5605 5603 5601 5597 5576 5617 5609 5611 5608 5599 5597 5587 5588 5578 5573 5576 5563 5559 5557 5554 5545 5550 5557 5547 5551 5550 5553 5546 5547 5556 5543 5591 5600 5607 5619 5631 5635 5638 5646
5592 5594 5597 5604 5602 5601 5597 5595 5594 5585 5576 5604 5606 5598 5594 5594 5598 5588 5582 5576 5576 5569 5569 5563 5556 5552 5553 5549 5549 5551 5546 5546 5549 5540 5519 5553 5548 5571 5595 5621 5634 5640 5640 5643 5645
5583 5587 5586 5590 5595 5591 5589 5586 5575 5576 5608 5603 5601 5600 5594 5594 5592 5588 5583 5573 5563 5549 5557 5566 5560 5554 5554 5546 5546 5540 5531 5527 5525 5531 5531 5532 5544 5583 5602 5613 5621 5631 5635 5639 5641
5574 5580 5583 5582 5580 5579 5577 5574 5560 5607 5611 5608 5602 5598 5589 5598 5591 5588 5582 5574 5580 5572 5556 5544 5547 5556 5553 5554 5545 5532 5532 5520 5527 5515 5535 5548 5547 5574 5609 5618 5625 5632 5638 5642 5642
5564 5570 5575 5578 5568 5565 5563 5552 5577 5608 5609 5597 5590 5583 5589 5593 5586 5583 5577 5578 5590 5582 5556 5557 5562 5563 5559 5556 5550 5541 5527 5545 5523 5540 5521 5544 5574 5596 5606 5610 5617 5623 5628 5629 5641
5547 5556 5566 5564 5556 5551 5549 5559 5580 5604 5597 5590 5577 5584 5583 5581 5569 5572 5582 5599 5588 5585 5583 5576 5559 5561 5553 5548 5545 5543 5538 5525 5522 5520 5530 5547 5563 5565 5599 5599 5605 5608 5614 5620 5627
5533 5545 5549 5547 5543 5539 5536 5554 5579 5589 5589 5580 5584 5582 5587 5584 5574 5570 5582 5593 5593 5577 5571 5568 5557 5551 5547 5541 5541 5528 5526 5530 5535 5533 5521 5525 5546 5594 5595 5596 5594 5602 5612 5613 5617
5521 5522 5532 5527 5524 5537 5545 5564 5572 5571 5572 5569 5569 5577 5580 5581 5577 5568 5573 5583 5586 5573 5557 5559 5555 5533 5546 5561 5560 5552 5545 5544 5521 5532 5529 5510 5548 5589 5590 5591 5593 5598 5603 5607 5611
5505 5520 5518 5510 5513 5525 5546 5553 5553 5557 5555 5557 5557 5567 5575 5571 5559 5570 5572 5579 5575 5566 5563 5555 5538 5529 5554 5551 5551 5544 5548 5550 5548 5539 5530 5522 5534 5583 5583 5585 5588 5591 5593 5596 5602
5481 5493 5505 5496 5511 5511 5521 5539 5540 5542 5545 5548 5556 5557 5553 5554 5563 5560 5566 5559 5560 5559 5554 5554 5548 5547 5540 5561 5557 5540 5547 5548 5541 5525 5537 5538 5547 5565 5568 5571 5580 5581 5587 5592 5594
5464 5480 5487 5492 5491 5490 5496 5519 5530 5531 5526 5536 5536 5546 5547 5540 5548 5550 5553 5544 5543 5546 5540 5536 5531 5543 5553 5561 5555 5557 5551 5549 5540 5551 5534 5569 5552 5567 5571 5574 5578 5581 5584 5587 5588
5428 5440 5450 5465 5483 5483 5490 5504 5502 5513 5506 5512 5520 5536 5538 5533 5543 5550 5547 5539 5541 5534 5524 5529 5518 5541 5532 5548 5547 5548 5559 5553 5556 5558 5554 5560 5562 5579 5571 5574 5574 5579 5581 5579 5580
5393 5399 5394 5438 5444 5447 5482 5491 5493 5495 5505 5511 5507 5512 5518 5531 5535 5537 5534 5532 5533 5526 5520 5520 5511 5521 5516 5549 5540 5522 5565 5563 5566 5568 5569 5555 5584 5574 5569 5569 5571 5573 5573 5575 5579